ES'HAIL 2

Last updated on Mon Sep 21 2026 00:03:01 GMT+0000 (Coordinated Universal Time)

1 43700U 18090A 26263.21122752 .00000000 00000+0 00000+0 0 9991 2 43700 0.0230 171.5231 0001218 346.4463 302.9563 1.00269756 28636
UTC large
Height (km)
Speed (km/s)
/
Latitude / Longitude
Inclination (degrees)
Orbital Period (minutes)
Azimuth
Elevation
Range (km)
Doppler Factor

Next 0 passes for location: London (51.5072 / 0.1276)

No passes found over London.
ES'HAIL 2